This is the latest recevied weather packets stored in our database for station/object K8RRT. If no packets are shown the sender has not sent any weather packets the latest 10 day(s).
| Time | Temp. | Humidity | Pressure | Rain* | Wind** | Luminosity | Snow |
|---|---|---|---|---|---|---|---|
| 1787777635 | 27.78° C | 66% | 1011.3 hPa | 0 mm | - | 193 W/m² | - |
| 1787777330 | 27.78° C | 65% | 1011.8 hPa | 0 mm | - | 218 W/m² | - |
| 1787777030 | 27.78° C | 66% | 1011.7 hPa | 0 mm | - | 236 W/m² | - |
| 1787776729 | 27.78° C | 67% | 1011.6 hPa | 0 mm | - | 268 W/m² | - |
| 1787776428 | 27.78° C | 66% | 1011.6 hPa | 0 mm | - | 256 W/m² | - |
| 1787776125 | 27.78° C | 64% | 1011.6 hPa | 0 mm | - | 291 W/m² | - |
| 1787775821 | 27.78° C | 65% | 1011.6 hPa | 0 mm | - | 326 W/m² | - |
| 1787775525 | 28.33° C | 64% | 1011.6 hPa | 0 mm | - | 305 W/m² | - |
| 1787775219 | 27.78° C | 64% | 1011.5 hPa | 0 mm | - | 392 W/m² | - |
| 1787774914 | 28.33° C | 64% | 1011.7 hPa | 0 mm | - | 317 W/m² | - |
| 1787774612 | 28.33° C | 62% | 1011.6 hPa | 0 mm | - | 381 W/m² | - |
| 1787774307 | 28.33° C | 63% | 1011.7 hPa | 0 mm | - | 286 W/m² | - |
| 1787774006 | 28.33° C | 61% | 1011.9 hPa | 0 mm | - | 361 W/m² | - |
| 1787773705 | 28.33° C | 60% | 1012.1 hPa | 0 mm | - | 309 W/m² | - |
| 1787773401 | 28.89° C | 62% | 1011.8 hPa | 0 mm | - | 396 W/m² | - |
| 1787773096 | 28.89° C | 61% | 1011.8 hPa | 0 mm | - | 488 W/m² | - |
| 1787772792 | 28.89° C | 63% | 1011.8 hPa | 0 mm | - | 568 W/m² | - |
| 1787772490 | 28.33° C | 62% | 1011.8 hPa | 0 mm | - | 533 W/m² | - |
| 1787772189 | 28.33° C | 61% | 1012.1 hPa | 0 mm | - | 586 W/m² | - |
| 1787771888 | 28.33° C | 61% | 1011.9 hPa | 0 mm | - | 566 W/m² | - |
| 1787771583 | 27.78° C | 64% | 1012.1 hPa | 0 mm | - | 449 W/m² | - |
| 1787771277 | 28.33° C | 62% | 1012 hPa | 0 mm | - | 203 W/m² | - |
| 1787770973 | 28.89° C | 63% | 1012.2 hPa | 0 mm | - | 499 W/m² | - |
| 1787770671 | 28.89° C | 60% | 1012.1 hPa | 0 mm | - | 646 W/m² | - |
| 1787770366 | 28.89° C | 64% | 1012 hPa | 0 mm | - | 529 W/m² | - |
* Rain latest hour (hover to see other rain measurements)
** Current wind speed in m/s (hover to see current wind gust speed)